Vorticity
19 7 9 4 7 3 3 4 6 3 7 5 6 6 5 4 4 5 5 4 4 3 4 5 5 5 6 5 6 7 7 7 7 7 7 7 7 7 7 7 7 6 6
9 7 8 3 5 5 4 5 5 4 -1 2 1 3 4 4 5 4 4 4 5 5 6 6 7 7 6 6 7 7 7 6 5 5 5 6 6 7 7 7 8 7 6
6 12 5 6 3 6 6 8 5 6 -4 1 5 4 4 5 5 5 6 6 6 6 7 7 8 8 7 6 6 6 6 6 6 5 5 6 7 7 6 6 6 8 7
8 14 3 5 5 6 6 6 8 -2 -0 3 4 5 6 5 5 6 6 6 7 7 8 8 7 7 7 7 8 8 7 7 7 7 6 6 7 6 6 5 5 6 6
7 11 5 8 5 7 4 8 -6 -1 4 4 6 6 5 5 5 6 7 7 8 7 6 6 6 7 7 8 7 7 8 8 7 7 7 7 8 6 5 5 5 5 5
10 10 8 3 7 2 7 2 1 4 5 6 6 6 5 5 7 7 7 7 5 5 5 6 6 6 6 5 6 5 5 5 5 4 4 5 5 6 6 5 4 4 4
12 13 7 0 5 3 3 5 5 5 7 6 6 5 5 6 7 7 5 4 5 5 6 6 6 5 6 5 4 3 4 4 4 4 4 4 4 5 4 4 4 5 4
14 10 8 2 3 2 3 3 5 7 7 6 5 5 6 8 7 5 4 5 6 6 6 6 5 5 4 4 3 4 4 4 5 5 5 5 6 6 6 6 6 6 5
13 -4 13 9 5 3 2 3 4 6 6 6 5 5 7 7 6 4 4 6 6 6 6 5 5 4 4 4 5 5 6 6 6 6 7 7 7 8 8 8 7 8 8
11 -6 4 8 8 4 4 4 4 6 6 5 5 6 8 7 4 4 5 5 5 5 4 5 4 5 5 5 6 5 5 6 6 6 6 5 6 6 5 6 6 7 7
11 -2 2 2 9 7 6 6 5 6 5 5 5 6 7 6 4 4 5 5 4 4 3 4 5 6 6 6 6 5 5 5 6 6 5 5 5 5 6 8 9 9 9
12 8 5 6 4 8 7 7 6 6 6 5 5 6 8 4 4 5 4 3 3 3 3 4 4 6 6 6 6 5 5 6 6 6 5 5 6 7 7 7 6 6 6
9 8 3 6 5 7 9 7 6 7 5 5 5 7 6 5 4 4 3 3 2 3 2 3 4 5 5 6 6 5 5 6 6 6 5 6 6 6 7 7 7 6 6
25 18 5 4 10 7 10 7 5 7 6 5 5 7 7 5 4 4 3 3 2 2 2 2 3 3 4 5 6 6 6 6 7 6 6 7 6 6 6 5 5 6 7
6 5 12 9 10 7 9 8 7 7 5 5 5 6 7 5 4 3 3 2 2 2 2 3 3 3 4 5 5 6 6 6 7 6 6 7 6 5 5 5 7 7 8
11 -4 10 12 10 10 8 9 7 7 5 5 5 6 6 5 4 4 3 2 3 2 2 3 3 4 4 5 5 5 6 6 7 6 6 6 6 6 6 6 7 7 7
17 1 -3 12 11 13 10 9 7 8 5 5 5 6 6 6 5 4 3 3 2 2 2 3 3 5 6 6 6 6 6 6 6 6 6 6 5 6 6 6 5 6 6
18 5 3 3 9 11 12 7 7 7 6 5 5 4 6 6 6 4 3 3 3 3 3 3 4 5 6 7 6 6 6 6 6 6 6 5 5 5 6 5 5 6 6
7 15 -0 -0 5 8 9 11 8 7 7 5 5 5 6 6 5 4 5 4 3 3 4 4 5 6 6 7 7 6 5 5 6 7 6 5 5 6 5 6 6 5 6
9 17 8 4 1 8 6 6 10 9 7 5 5 5 5 6 6 5 5 4 4 4 4 4 5 6 6 7 6 6 5 5 6 7 6 6 6 5 5 5 5 5 6
0 10 10 5 3 -0 7 6 7 8 7 7 6 5 4 5 4 5 5 5 5 4 4 4 4 5 6 6 6 6 5 5 6 6 7 6 6 5 5 6 6 5 6
18 2 8 5 3 2 2 8 8 8 9 8 8 5 6 5 4 4 6 4 5 5 4 4 4 4 5 6 6 5 6 4 6 8 6 6 6 5 5 5 5 6 8
-2 1 21 12 7 4 6 4 7 5 5 6 7 6 5 5 5 6 5 5 6 5 5 4 4 4 5 5 5 5 6 5 5 6 7 6 6 6 6 6 6 7 9
9 9 8 16 8 6 4 6 4 5 5 10 7 8 5 6 5 6 5 6 6 5 5 4 4 4 5 5 5 6 5 5 5 7 8 5 4 7 5 3 6 8 8
11 11 11 11 8 8 7 8 5 6 6 6 7 9 6 6 6 6 6 5 6 4 6 4 5 5 5 5 5 6 5 5 5 7 6 5 9 8 4 4 6 8 8
15 8 7 13 10 13 8 2 11 5 6 5 6 7 6 6 7 6 6 6 5 5 6 5 5 5 4 5 5 6 5 4 5 7 5 6 9 7 4 6 8 9 9
Height
3116 3119 3123 3125 3128 3130 3133 3135 3136 3138 3140 3142 3143 3145 3146 3147 3149 3151 3152 3152 3153 3155 3155 3156 3157 3157 3158 3156 3158 3158 3158 3159 3159 3159 3159 3159 3160 3160 3160 3161 3162 3163 3163
3113 3117 3121 3124 3126 3129 3130 3134 3135 3137 3139 3141 3143 3144 3146 3147 3149 3150 3151 3152 3154 3154 3155 3156 3157 3157 3157 3157 3158 3158 3158 3159 3159 3159 3159 3160 3160 3161 3160 3160 3161 3162 3163
3111 3115 3119 3122 3125 3127 3129 3132 3135 3137 3139 3141 3142 3144 3145 3147 3149 3150 3151 3152 3153 3154 3154 3155 3156 3156 3156 3157 3159 3159 3158 3158 3159 3159 3159 3160 3161 3161 3160 3160 3160 3161 3162
3109 3113 3116 3121 3124 3126 3128 3131 3134 3136 3138 3141 3142 3143 3145 3147 3148 3149 3150 3151 3152 3154 3154 3155 3155 3156 3155 3158 3158 3159 3159 3158 3159 3158 3158 3159 3161 3160 3160 3160 3160 3161 3161
3106 3111 3114 3119 3122 3124 3127 3130 3132 3135 3137 3139 3142 3143 3144 3145 3146 3147 3149 3150 3151 3153 3153 3154 3155 3155 3155 3158 3158 3158 3159 3158 3158 3157 3158 3158 3160 3160 3160 3160 3160 3161 3162
3106 3108 3113 3117 3120 3123 3126 3128 3130 3133 3135 3137 3140 3141 3143 3144 3145 3146 3148 3149 3151 3153 3153 3154 3154 3155 3156 3158 3158 3158 3160 3159 3158 3158 3158 3158 3158 3159 3159 3159 3159 3160 3160
3105 3107 3111 3114 3118 3121 3124 3126 3129 3131 3134 3136 3138 3140 3141 3143 3144 3146 3147 3148 3151 3151 3152 3153 3154 3154 3157 3157 3158 3158 3159 3159 3159 3158 3158 3158 3158 3158 3158 3158 3158 3159 3159
3102 3105 3108 3112 3116 3118 3122 3124 3127 3129 3132 3135 3136 3138 3140 3142 3143 3145 3146 3148 3150 3150 3151 3151 3152 3154 3157 3157 3157 3158 3158 3159 3158 3158 3157 3157 3157 3157 3156 3156 3157 3157 3157
3099 3102 3106 3110 3113 3116 3119 3121 3125 3128 3131 3134 3134 3136 3138 3140 3142 3143 3145 3147 3149 3150 3151 3151 3152 3154 3157 3156 3157 3157 3157 3157 3157 3156 3156 3156 3155 3155 3155 3154 3154 3154 3155
3096 3100 3104 3107 3110 3113 3116 3119 3122 3126 3128 3131 3132 3134 3136 3139 3140 3143 3145 3146 3149 3150 3151 3151 3151 3152 3155 3155 3156 3155 3156 3155 3155 3155 3154 3154 3153 3153 3152 3152 3152 3151 3151
3092 3096 3100 3104 3107 3110 3113 3116 3120 3123 3126 3129 3130 3132 3136 3137 3138 3142 3144 3145 3147 3149 3149 3150 3150 3152 3153 3153 3154 3153 3154 3153 3153 3153 3152 3151 3151 3150 3149 3149 3148 3148 3148
3089 3093 3097 3100 3104 3107 3109 3114 3116 3120 3123 3125 3128 3132 3133 3135 3138 3140 3142 3144 3145 3148 3148 3147 3149 3152 3152 3151 3152 3151 3152 3152 3151 3151 3150 3149 3148 3147 3146 3145 3144 3143 3143
3088 3090 3094 3096 3100 3102 3106 3111 3113 3118 3119 3124 3126 3129 3131 3135 3136 3138 3140 3142 3143 3145 3146 3145 3147 3149 3149 3149 3150 3149 3149 3149 3148 3148 3148 3147 3145 3144 3143 3142 3141 3139 3139
3079 3083 3087 3091 3097 3100 3102 3108 3111 3114 3117 3120 3123 3126 3130 3132 3134 3136 3138 3140 3141 3143 3143 3144 3145 3147 3147 3147 3147 3147 3147 3147 3146 3146 3145 3145 3143 3142 3141 3139 3138 3136 3136
3075 3080 3084 3088 3093 3096 3099 3104 3107 3110 3114 3117 3120 3124 3126 3129 3132 3134 3136 3137 3139 3141 3141 3142 3144 3144 3144 3145 3145 3145 3144 3144 3143 3143 3143 3142 3141 3139 3137 3136 3135 3133 3132
3071 3078 3081 3084 3089 3092 3096 3100 3104 3107 3110 3114 3117 3121 3123 3126 3129 3132 3133 3135 3136 3138 3138 3141 3141 3141 3141 3142 3142 3142 3142 3141 3140 3140 3140 3139 3137 3136 3135 3133 3131 3129 3127
3068 3073 3077 3081 3084 3088 3092 3096 3100 3103 3106 3110 3114 3117 3119 3123 3126 3128 3130 3133 3134 3135 3137 3138 3138 3138 3138 3138 3138 3139 3138 3138 3137 3136 3136 3135 3134 3132 3131 3128 3126 3124 3122
3062 3070 3074 3077 3081 3084 3087 3091 3094 3098 3103 3106 3109 3112 3116 3119 3122 3124 3127 3129 3130 3132 3134 3136 3135 3135 3134 3135 3135 3135 3135 3134 3134 3132 3131 3131 3129 3127 3126 3124 3122 3119 3117
3058 3062 3067 3072 3075 3079 3082 3085 3089 3093 3098 3101 3104 3109 3113 3116 3118 3121 3123 3126 3126 3129 3130 3132 3131 3131 3130 3131 3131 3130 3130 3130 3130 3128 3127 3126 3123 3121 3120 3118 3116 3113 3110
3050 3056 3060 3065 3070 3074 3077 3080 3084 3088 3091 3095 3100 3106 3109 3111 3112 3116 3119 3122 3124 3125 3127 3128 3128 3128 3127 3127 3126 3126 3126 3125 3125 3123 3122 3120 3118 3115 3113 3111 3109 3107 3105
3044 3049 3055 3060 3064 3067 3070 3074 3078 3083 3086 3091 3096 3099 3102 3104 3108 3111 3115 3117 3119 3121 3123 3123 3124 3124 3123 3122 3122 3121 3121 3121 3120 3118 3117 3115 3112 3110 3107 3104 3102 3100 3097
3037 3043 3048 3054 3057 3062 3065 3070 3074 3078 3082 3087 3091 3093 3097 3100 3104 3107 3109 3111 3115 3116 3118 3119 3119 3120 3119 3118 3118 3116 3117 3118 3115 3114 3112 3110 3107 3104 3100 3097 3095 3091 3088
3031 3035 3041 3048 3052 3055 3059 3062 3066 3069 3074 3077 3081 3087 3090 3094 3097 3101 3103 3107 3109 3111 3113 3114 3114 3115 3115 3114 3113 3113 3112 3112 3110 3110 3108 3105 3102 3099 3095 3091 3087 3083 3081
3023 3029 3035 3040 3043 3047 3051 3054 3059 3064 3068 3072 3077 3081 3084 3088 3091 3095 3098 3101 3104 3106 3108 3109 3109 3110 3110 3109 3108 3108 3107 3107 3105 3104 3103 3101 3099 3095 3091 3087 3081 3075 3071
3014 3021 3027 3032 3034 3037 3040 3047 3052 3055 3061 3065 3069 3073 3077 3081 3085 3089 3092 3095 3099 3100 3102 3103 3104 3104 3104 3104 3104 3103 3103 3102 3100 3098 3097 3094 3092 3089 3085 3081 3076 3069 3064
3008 3013 3017 3021 3025 3029 3032 3038 3042 3047 3052 3054 3060 3064 3069 3074 3079 3082 3085 3089 3092 3094 3096 3097 3098 3098 3099 3099 3098 3098 3097 3096 3095 3092 3090 3089 3087 3085 3080 3075 3070 3065 3059